#timestamp,LO_Frequency,Hit,StdDev 
1582066815.1,286047000.7,N
1582066835.9,286046998.7,N
1582066855.7,286046998.8,N
1582066875.6,286047000.9,N
1582066895.4,286047000.6,N
1582066915.2,286047002.1,N
1582066935.1,286047003.2,N
1582066936.0,286047003.2,N
1582066955.8,286047003.6,N
1582066975.7,286047001.8,N
1582066995.5,286047004.2,N
1582067015.3,286047001.3,N
1582067035.2,286047003.9,N
1582067055.0,286047003.7,N
1582067055.9,286047003.7,N
1582067075.8,286047001.4,N
1582067095.6,286047004.2,N
1582067115.4,286047007.0,Y
1582067135.3,286047004.5,P
1582067155.1,286047005.2,P
1582067175.9,286047005.5,P
1582067195.7,286047002.1,N
1582067215.5,286047003.7,N
1582067235.4,286047004.0,N
1582067255.2,286047003.4,N
1582067275.1,286047005.3,Y
1582067276.0,286047005.3,P
1582067295.8,286047001.3,N
1582067315.6,286047002.2,N
1582067335.5,286046998.6,N
1582067355.3,286046998.6,N
1582067375.1,286047001.2,N
1582067425.9,286046996.5,E
1582067435.8,286047000.3,N
1582067455.7,286047002.7,P
1582067475.5,286047000.1,N
1582067495.4,286047002.1,N
1582067515.2,286047004.0,Y
1582067535.0,286046999.9,P
1582067535.9,286046999.9,N
1582067555.8,286047002.6,P
1582067575.6,286047001.0,N
1582067595.5,286046995.2,Y
1582067615.3,286046993.3,P
1582067635.1,286046995.8,N
1582067655.9,286046997.2,N
1582067675.7,286046998.4,N
1582067695.6,286047000.9,N
1582067715.4,286047000.9,N
1582067735.2,286047001.0,N
1582067755.1,286047001.2,N
1582067756.0,286047001.2,N
1582067775.8,286046999.4,N
1582067795.7,286046999.2,N
1582067815.5,286046998.9,N
1582067835.3,286047000.6,N
1582067855.2,286047001.6,N
1582067875.0,286047002.7,N
1582067875.9,286047002.7,N
1582067895.7,286047002.0,N
1582067915.6,286047002.7,N
1582067935.4,286046999.9,N
1582067955.3,286047002.6,N
1582067975.1,286047004.1,N
1582067995.8,286047003.4,N
1582068015.7,286047003.1,N
1582068035.5,286047005.8,N
1582068055.4,286047005.6,N
1582068075.2,286047005.6,N
1582068095.0,286047004.3,N
1582068095.9,286047004.3,N
1582068115.8,286047001.6,N
1582068135.6,286047001.3,N
1582068155.4,286047003.6,N
1582068175.3,286047005.8,N
1582068195.1,286047005.7,N
1582068215.9,286047005.9,N
1582068235.7,286047005.2,N
1582068255.5,286047007.0,Y
1582068275.4,286047003.4,P
1582068295.2,286047002.9,P
1582068315.0,286047002.4,P
1582068316.0,286047002.4,Y
1582068335.8,286046997.3,P
1582068355.6,286046998.0,N
1582068375.5,286046997.0,N
1582068395.3,286046996.5,N
1582068415.1,286046996.6,N
1582068435.9,286046997.9,N
1582068455.7,286046996.1,N
1582068475.6,286046995.3,N
1582068495.4,286046995.8,N
1582068515.2,286046997.3,N
1582068535.1,286046997.5,N
1582068536.0,286046997.5,N
1582068555.8,286046994.9,N
1582068575.6,286046995.3,N
1582068595.5,286046993.8,Y
1582068615.3,286046996.8,P
1582068635.2,286047000.9,P
1582068655.0,286046998.3,N
1582068655.9,286046998.3,N
1582068675.7,286046999.4,N
1582068695.6,286046998.2,N
1582068715.4,286046998.3,N
1582068735.3,286047001.2,N
1582068755.1,286047000.6,N
1582068756.0,286047000.6,N
1582068775.8,286046998.7,N
1582068795.7,286046996.7,N
1582068815.5,286046999.5,N
1582068835.4,286046998.3,N
1582068855.2,286046999.5,N
1582068875.0,286046997.0,N
1582068875.9,286046997.0,N
1582068895.8,286046998.9,N
1582068915.6,286046999.1,N
1582068935.4,286046999.3,N
1582068955.3,286047001.2,N
1582068975.1,286047000.3,N
1582068995.9,286047002.0,N
1582069015.7,286047003.9,N
1582069035.5,286047004.2,N
1582069055.4,286047002.0,N
1582069075.2,286046998.6,N
1582069095.1,286047002.5,N
1582069096.0,286047002.5,N
1582069115.8,286047001.8,N
1582069135.6,286047001.5,N
1582069155.5,286047001.7,N
1582069175.3,286047001.2,N
1582069195.1,286047001.2,N
1582069215.9,286047000.7,N
1582069235.7,286046998.8,N
1582069255.6,286046998.2,N
1582069275.4,286047001.0,N
1582069295.2,286047002.1,N
1582069315.1,286047002.2,N
1582069316.0,286047002.2,N
1582069335.8,286047000.4,N
1582069355.7,286046998.2,N
1582069375.5,286046998.8,N
1582069395.3,286046998.1,N
1582069415.2,286046998.7,N
1582069435.0,286046999.6,N
1582069435.9,286046999.6,N
1582069455.8,286046995.2,N
1582069475.6,286046995.4,N
1582069495.4,286046997.5,N
1582069515.3,286046996.7,N
1582069535.1,286046996.8,N
1582069555.9,286047000.6,N
1582069575.7,286046999.3,N
1582069595.5,286046999.0,N
1582069615.4,286046999.4,N
1582069635.2,286047000.7,N
1582069655.0,286047000.8,N
1582069655.9,286047000.8,N
1582069675.8,286047002.3,N
1582069695.6,286047000.0,N
1582069715.5,286046999.3,N
1582069735.3,286046999.5,N
1582069755.1,286046998.9,N
1582069775.9,286046999.8,N
1582069795.7,286047002.2,N
1582069815.6,286047001.9,N
1582069835.4,286047000.1,N
1582069855.2,286046998.9,N
1582069875.1,286046998.7,N
1582069876.0,286046998.7,N
1582069895.8,286047000.5,N
1582069915.7,286047002.3,N
1582069935.5,286047002.3,N
1582069955.3,286047004.2,N
1582069975.2,286047003.1,N
1582069995.0,286047002.7,N
1582069995.9,286047002.7,N
1582070015.8,286046999.9,N
1582070035.6,286047002.5,N
1582070055.4,286046998.4,N
1582070075.3,286046998.1,N
1582070095.1,286047000.7,N
1582070115.8,286046999.9,N
1582070135.7,286047003.2,N
1582070155.5,286047005.9,Y
1582070175.4,286047003.4,P
1582070195.2,286047001.5,N
1582070215.0,286047002.3,N
1582070215.9,286047002.3,N
1582070235.8,286046996.6,Y
1582070255.6,286046994.3,P
1582070275.5,286046995.9,N
1582070295.3,286046995.3,N
1582070315.1,286046994.9,N
1582070335.9,286046996.9,N
1582070355.7,286046999.2,N
1582070375.5,286046997.0,N
1582070395.4,286046995.2,N
